DW4127 Weather Reports


Display with metric or nautical units.
time (UTC)temp
F
wind
direction
speed
MPH
gust
MPH
rain 1hr
in
rain 24hr
in
rain mn
in
humidity
%
barometer
mb
20260903162537 83 113 5.0 10.0 0.00 0.00 0.00 79 1013.2
20260903161537 83 90 5.0 11.0 0.00 0.00 0.00 79 1013.1
20260903160537 83 90 6.0 10.0 0.00 0.00 0.00 80 1013.1
20260903155537 82 135 4.0 13.0 0.00 0.00 0.00 81 1013.0
20260903154535 81 113 4.0 11.0 0.00 0.00 0.00 83 1013.1
20260903153537 81 113 6.0 9.0 0.00 0.00 0.00 83 1013.0
20260903152537 81 113 3.0 7.0 0.00 0.00 0.00 84 1013.0
20260903151557 81 113 4.0 9.0 0.00 0.00 0.00 84 1013.1
20260903150537 81 113 3.0 6.0 0.00 0.00 0.00 84 1013.1
20260903145537 81 113 3.0 10.0 0.00 0.00 0.00 84 1013.1
20260903144537 80 113 4.0 8.0 0.00 0.00 0.00 84 1013.0
20260903143537 80 90 2.0 7.0 0.00 0.00 0.00 85 1013.1
20260903142537 80 113 3.0 7.0 0.00 0.00 0.00 86 1013.1
20260903141537 79 113 4.0 9.0 0.00 0.00 0.00 86 1013.1
20260903140537 79 90 4.0 8.0 0.00 0.00 0.00 86 1013.2
20260903135537 79 113 3.0 7.0 0.00 0.00 0.00 87 1013.3
20260903134537 79 135 2.0 8.0 0.00 0.00 0.00 87 1013.3
20260903133537 78 113 4.0 10.0 0.00 0.00 0.00 87 1013.3
20260903132537 78 113 5.0 11.0 0.00 0.00 0.00 87 1013.1
20260903131537 78 113 4.0 9.0 0.00 0.00 0.00 87 1013.0
20260903130557 78 135 4.0 8.0 0.00 0.00 0.00 87 1012.8
20260903125557 78 113 4.0 8.0 0.00 0.00 0.00 87 1012.8
20260903124537 78 135 3.0 6.0 0.00 0.00 0.00 87 1012.8
20260903123557 78 113 5.0 8.0 0.00 0.00 0.00 87 1012.6
20260903122537 78 113 4.0 9.0 0.00 0.00 0.00 87 1012.7
20260903121537 78 113 4.0 7.0 0.00 0.00 0.00 87 1012.5
20260903120537 78 113 3.0 7.0 0.00 0.00 0.00 87 1012.6
20260903115537 78 90 3.0 8.0 0.00 0.00 0.00 87 1012.4
20260903114537 77 135 3.0 4.0 0.00 0.00 0.00 87 1012.1
20260903113537 77 135 3.0 8.0 0.00 0.00 0.00 87 1012.3
20260903112557 77 135 2.0 4.0 0.00 0.00 0.00 87 1012.3
20260903111537 77 113 2.0 6.0 0.00 0.00 0.00 87 1012.2
20260903110556 77 113 3.0 4.0 0.00 0.00 0.00 87 1012.4
20260903105537 77 113 2.0 8.0 0.00 0.00 0.00 87 1012.3
20260903104537 77 135 2.0 5.0 0.00 0.00 0.00 87 1012.2
20260903103536 77 90 3.0 7.0 0.00 0.00 0.00 86 1012.2
20260903102537 77 90 3.0 8.0 0.00 0.00 0.00 86 1012.1
20260903101536 77 90 3.0 7.0 0.00 0.00 0.00 85 1012.0
20260903100537 78 90 2.0 4.0 0.00 0.00 0.00 85 1012.1
20260903095536 78 90 3.0 5.0 0.00 0.00 0.00 84 1012.3
20260903094537 78 90 4.0 9.0 0.00 0.00 0.00 84 1012.3
20260903093557 78 90 2.0 5.0 0.00 0.00 0.00 85 1012.3
20260903092537 78 135 1.0 3.0 0.00 0.00 0.00 87 1012.1
20260903091536 77 90 1.0 3.0 0.00 0.00 0.00 87 1012.1
20260903090537 77 90 2.0 7.0 0.00 0.00 0.00 88 1012.2
20260903085536 78 90 3.0 9.0 0.00 0.00 0.00 87 1012.2
20260903084536 78 0.0 7.0 0.00 0.00 0.00 87 1012.1
20260903083537 77 0.0 0.0 0.00 0.00 0.00 87 1012.0
20260903082537 78 0.0 2.0 0.00 0.00 0.00 87 1012.0
20260903081537 78 68 1.0 3.0 0.00 0.00 0.00 87 1012.0
20260903080537 78 68 2.0 5.0 0.00 0.00 0.00 86 1011.9
20260903075537 78 68 2.0 4.0 0.00 0.00 0.00 85 1011.9
20260903074537 78 68 2.0 5.0 0.00 0.00 0.00 85 1011.9
20260903073536 78 90 1.0 4.0 0.00 0.00 0.00 83 1011.8
20260903072537 79 68 2.0 4.0 0.00 0.00 0.00 82 1012.0
20260903071537 80 68 2.0 9.0 0.00 0.00 0.00 80 1012.0
20260903070536 80 68 3.0 9.0 0.00 0.00 0.00 80 1012.0
20260903065536 80 68 2.0 7.0 0.00 0.00 0.00 80 1011.9
20260903064536 80 68 1.0 4.0 0.00 0.00 0.00 81 1012.0
20260903063616 79 68 1.0 4.0 0.00 0.00 0.00 81 1012.0
20260903062536 79 68 2.0 7.0 0.00 0.00 0.00 80 1012.1
20260903061536 80 68 2.0 8.0 0.00 0.00 0.00 79 1012.0
20260903060536 80 68 2.0 8.0 0.00 0.00 0.00 78 1012.1
20260903055536 80 68 4.0 11.0 0.00 0.00 0.00 77 1012.4
20260903054536 80 68 3.0 12.0 0.00 0.00 0.00 76 1012.5
20260903053536 81 68 1.0 4.0 0.00 0.00 0.00 75 1012.5
20260903052537 81 68 2.0 5.0 0.00 0.00 0.00 75 1012.5
20260903051536 81 68 2.0 7.0 0.00 0.00 0.00 74 1012.6
20260903050536 81 68 3.0 10.0 0.00 0.00 0.00 73 1012.7
20260903045535 81 90 3.0 10.0 0.00 0.00 0.00 73 1012.6
20260903044536 82 90 4.0 11.0 0.00 0.00 0.00 72 1012.8
20260903043535 82 68 2.0 9.0 0.00 0.00 0.00 71 1012.7
20260903042535 82 68 3.0 8.0 0.00 0.00 0.00 70 1012.6
20260903041536 83 68 2.0 6.0 0.00 0.00 0.00 70 1012.7
20260903040536 83 68 3.0 9.0 0.00 0.00 0.00 69 1012.6
20260903035556 84 68 5.0 12.0 0.00 0.00 0.00 69 1012.6
20260903034536 84 68 5.0 10.0 0.00 0.00 0.00 68 1012.6
20260903033535 84 68 3.0 9.0 0.00 0.00 0.00 67 1012.5
20260903032536 84 68 4.0 9.0 0.00 0.00 0.00 67 1012.5
20260903031535 85 68 5.0 12.0 0.00 0.00 0.00 66 1012.4
20260903030536 85 90 3.0 9.0 0.00 0.00 0.00 65 1012.6
20260903025536 85 90 5.0 12.0 0.00 0.00 0.00 64 1012.5
20260903024555 86 90 7.0 13.0 0.00 0.00 0.00 63 1012.4
20260903023536 86 68 6.0 11.0 0.00 0.00 0.00 63 1012.3
20260903022535 87 90 5.0 13.0 0.00 0.00 0.00 62 1012.1
20260903021535 87 90 7.0 15.0 0.00 0.00 0.00 61 1012.0
20260903020535 88 90 8.0 20.0 0.00 0.00 0.00 60 1011.8
20260903015555 89 90 6.0 12.0 0.00 0.00 0.00 59 1011.6
20260903014535 89 90 7.0 13.0 0.00 0.00 0.00 57 1011.4
20260903013535 90 90 5.0 11.0 0.00 0.00 0.00 55 1011.4
20260903012535 90 90 2.0 7.0 0.00 0.00 0.00 54 1011.1
20260903011535 90 90 2.0 7.0 0.00 0.00 0.00 54 1011.0
20260903010536 90 90 3.0 11.0 0.00 0.00 0.00 54 1010.9
20260903005535 91 90 3.0 9.0 0.00 0.00 0.00 56 1010.9
20260903004535 91 90 4.0 8.0 0.00 0.00 0.00 56 1010.9
20260903003535 91 68 2.0 8.0 0.00 0.00 0.00 57 1010.9
20260903002535 92 90 2.0 10.0 0.00 0.00 0.00 58 1010.8
20260903001535 92 68 2.0 8.0 0.00 0.00 0.00 58 1010.7
20260903000535 92 68 1.0 8.0 0.00 0.00 0.00 58 1010.6
20260902235535 91 68 1.0 3.0 0.00 0.00 0.00 60 1010.8
20260902234535 91 90 1.0 5.0 0.00 0.00 0.00 60 1010.7
20260902233535 90 0.0 3.0 0.00 0.00 0.00 62 1010.7
20260902232535 89 0.0 3.0 0.00 0.00 0.00 64 1010.6
20260902231535 88 68 2.0 5.0 0.00 0.00 0.00 65 1010.5
20260902230535 87 113 2.0 10.0 0.00 0.00 0.00 67 1010.5
20260902225535 89 68 7.0 12.0 0.00 0.00 0.00 62 1010.6
20260902224535 95 68 7.0 16.0 0.00 0.00 0.00 52 1010.4
20260902223535 100 45 1.0 3.0 0.00 0.00 0.00 44 1010.3
20260902222555 100 68 2.0 4.0 0.00 0.00 0.00 44 1010.4
20260902221535 97 68 1.0 8.0 0.00 0.00 0.00 46 1010.5
20260902220555 99 68 2.0 4.0 0.00 0.00 0.00 41 1010.5
20260902215535 102 45 2.0 7.0 0.00 0.00 0.00 40 1010.5
20260902214535 101 68 2.0 7.0 0.00 0.00 0.00 40 1010.6
20260902213535 102 23 2.0 6.0 0.00 0.00 0.00 40 1010.7
20260902212535 103 225 2.0 11.0 0.00 0.00 0.00 40 1010.9
20260902211535 103 0 2.0 8.0 0.00 0.00 0.00 39 1011.0
20260902210535 102 23 2.0 5.0 0.00 0.00 0.00 40 1010.9
20260902205535 101 45 5.0 13.0 0.00 0.00 0.00 40 1011.1
20260902204535 103 68 3.0 13.0 0.00 0.00 0.00 40 1011.5
20260902203535 101 225 4.0 17.0 0.00 0.00 0.00 43 1011.5
20260902202555 102 90 2.0 5.0 0.00 0.00 0.00 42 1011.6
20260902201535 101 23 2.0 6.0 0.00 0.00 0.00 42 1011.8
20260902200535 100 45 3.0 14.0 0.00 0.00 0.00 43 1012.1
20260902195535 101 23 2.0 6.0 0.00 0.00 0.00 42 1012.2
20260902194535 100 23 2.0 5.0 0.00 0.00 0.00 44 1012.3
20260902193535 101 68 2.0 5.0 0.00 0.00 0.00 43 1012.5
20260902192535 101 90 1.0 4.0 0.00 0.00 0.00 45 1012.7
20260902191535 99 68 2.0 6.0 0.00 0.00 0.00 42 1012.8
20260902190555 100 113 1.0 4.0 0.00 0.00 0.00 44 1012.9
20260902185535 99 90 2.0 7.0 0.00 0.00 0.00 44 1013.2
20260902184535 99 45 2.0 8.0 0.00 0.00 0.00 44 1013.4
20260902183535 97 113 2.0 8.0 0.00 0.00 0.00 49 1013.4
20260902182535 98 90 3.0 10.0 0.00 0.00 0.00 47 1013.6
20260902181535 97 135 1.0 4.0 0.00 0.00 0.00 50 1013.8
20260902180535 96 90 4.0 9.0 0.00 0.00 0.00 48 1014.1
20260902175535 97 90 2.0 11.0 0.00 0.00 0.00 51 1014.4
20260902174535 96 68 2.0 4.0 0.00 0.00 0.00 52 1014.7
20260902173535 95 90 1.0 4.0 0.00 0.00 0.00 53 1014.6
20260902172535 95 68 2.0 5.0 0.00 0.00 0.00 54 1014.8
20260902171535 95 90 1.0 8.0 0.00 0.00 0.00 54 1015.0
20260902170535 92 90 2.0 4.0 0.00 0.00 0.00 59 1015.0
20260902165535 91 113 2.0 7.0 0.00 0.00 0.00 59 1015.2
20260902164535 92 90 5.0 10.0 0.00 0.00 0.00 58 1015.4
20260902163535 92 90 3.0 8.0 0.00 0.00 0.00 59 1015.4